• In Deutschland
  • Länderverzeichnis
  • Für 7 Tage
  • Wassertemperatur
  • Satellitenkarten
  • Wetterkarte
  • Widgets
  • user-avatar
    Anmelden

    Stündliche Wetter Haradok

    Heute, 28 Mai, Montag

    Zeit Temperatur Niederschläge Wind Luftdruck Luftfeuchtigkeit
    00:00 +15°C° 0 mm 1 m/S 756 mmHg 79%
    01:00 +15°C° 0 mm 1 m/S 756 mmHg 82%
    02:00 +14°C° 0 mm 1 m/S 756 mmHg 84%
    03:00 +14°C° 0 mm 2 m/S 756 mmHg 85%
    04:00 +14°C° 0 mm 2 m/S 757 mmHg 85%
    05:00 +14°C° 0 mm 2 m/S 757 mmHg 85%
    06:00 +16°C° 0 mm 2 m/S 757 mmHg 79%
    07:00 +17°C° 0 mm 2 m/S 757 mmHg 73%
    08:00 +19°C° 0 mm 2 m/S 758 mmHg 68%
    09:00 +21°C° 0 mm 2 m/S 758 mmHg 63%
    10:00 +22°C° 0 mm 3 m/S 758 mmHg 58%
    11:00 +25°C° 0 mm 3 m/S 758 mmHg 53%
    12:00 +25°C° 0 mm 3 m/S 758 mmHg 51%
    13:00 +25°C° 0 mm 3 m/S 758 mmHg 48%
    14:00 +26°C° 0 mm 3 m/S 758 mmHg 46%
    15:00 +26°C° 0 mm 3 m/S 758 mmHg 47%
    16:00 +25°C° 0 mm 2 m/S 758 mmHg 49%
    17:00 +25°C° 0 mm 2 m/S 758 mmHg 50%
    18:00 +23°C° 0 mm 2 m/S 758 mmHg 58%
    19:00 +20°C° 0 mm 2 m/S 758 mmHg 66%
    20:00 +18°C° 0 mm 2 m/S 758 mmHg 74%
    21:00 +17°C° 0 mm 2 m/S 758 mmHg 74%
    22:00 +16°C° 0 mm 2 m/S 758 mmHg 75%
    23:00 +14°C° 0 mm 3 m/S 759 mmHg 76%

    Morgen, 29 Mai, Dienstag

    Zeit Temperatur Niederschläge Wind Luftdruck Luftfeuchtigkeit
    00:00 +14°C° 0 mm 2 m/S 759 mmHg 74%
    01:00 +13°C° 0 mm 2 m/S 759 mmHg 73%
    02:00 +12°C° 0 mm 2 m/S 759 mmHg 72%
    03:00 +12°C° 0 mm 2 m/S 759 mmHg 74%
    04:00 +12°C° 0 mm 2 m/S 759 mmHg 77%
    05:00 +12°C° 0 mm 2 m/S 758 mmHg 79%
    06:00 +15°C° 0 mm 2 m/S 758 mmHg 76%
    07:00 +17°C° 0 mm 2 m/S 758 mmHg 73%
    08:00 +19°C° 0 mm 2 m/S 758 mmHg 70%
    09:00 +21°C° 0 mm 2 m/S 758 mmHg 66%
    10:00 +23°C° 0 mm 2 m/S 758 mmHg 62%
    11:00 +25°C° 0 mm 2 m/S 757 mmHg 58%
    12:00 +26°C° 0 mm 2 m/S 757 mmHg 55%
    13:00 +26°C° 0 mm 2 m/S 757 mmHg 53%
    14:00 +27°C° 0 mm 1 m/S 756 mmHg 50%
    15:00 +27°C° 0 mm 1 m/S 755 mmHg 51%
    16:00 +27°C° 0 mm 1 m/S 755 mmHg 51%
    17:00 +27°C° 0 mm 1 m/S 754 mmHg 52%
    18:00 +25°C° 0 mm 1 m/S 754 mmHg 60%
    19:00 +23°C° 0 mm 1 m/S 754 mmHg 68%
    20:00 +21°C° 0 mm 1 m/S 754 mmHg 75%
    21:00 +20°C° 0 mm 1 m/S 753 mmHg 79%
    22:00 +19°C° 0 mm 1 m/S 753 mmHg 82%
    23:00 +19°C° 0 mm 1 m/S 753 mmHg 86%

    übermorgen, 30 Mai, Mittwoch

    Zeit Temperatur Niederschläge Wind Luftdruck Luftfeuchtigkeit
    00:00 +18°C° 0 mm 1 m/S 753 mmHg 88%
    01:00 +18°C° 0 mm 1 m/S 753 mmHg 90%
    02:00 +16°C° 0 mm 2 m/S 752 mmHg 91%
    03:00 +17°C° 0 mm 2 m/S 752 mmHg 92%
    04:00 +17°C° 0 mm 2 m/S 752 mmHg 92%
    05:00 +17°C° 0 mm 2 m/S 751 mmHg 92%
    06:00 +19°C° 0 mm 2 m/S 751 mmHg 85%
    07:00 +21°C° 0 mm 2 m/S 751 mmHg 78%
    08:00 +24°C° 0 mm 2 m/S 751 mmHg 71%
    09:00 +25°C° 0 mm 3 m/S 750 mmHg 64%
    10:00 +26°C° 0 mm 3 m/S 750 mmHg 57%
    11:00 +28°C° 0 mm 4 m/S 749 mmHg 50%
    12:00 +28°C° 0 mm 4 m/S 749 mmHg 50%
    13:00 +28°C° 0 mm 4 m/S 749 mmHg 50%
    14:00 +28°C° 0 mm 4 m/S 748 mmHg 50%
    15:00 +28°C° 0 mm 4 m/S 748 mmHg 52%
    16:00 +27°C° 0 mm 4 m/S 747 mmHg 55%
    17:00 +27°C° 0 mm 3 m/S 747 mmHg 57%
    18:00 +25°C° 0 mm 3 m/S 746 mmHg 62%
    19:00 +24°C° 0 mm 3 m/S 746 mmHg 67%
    20:00 +21°C° 0 mm 2 m/S 746 mmHg 73%
    21:00 +20°C° 0 mm 3 m/S 746 mmHg 74%
    22:00 +19°C° 0 mm 3 m/S 746 mmHg 76%
    23:00 +18°C° 0 mm 3 m/S 746 mmHg 77%

    31 Mai, Donnerstag

    Zeit Temperatur Niederschläge Wind Luftdruck Luftfeuchtigkeit
    00:00 +17°C° 0 mm 3 m/S 746 mmHg 77%
    01:00 +16°C° 0 mm 3 m/S 746 mmHg 76%
    02:00 +14°C° 0 mm 3 m/S 746 mmHg 76%
    03:00 +13°C° 0 mm 4 m/S 747 mmHg 72%
    04:00 +12°C° 0 mm 4 m/S 747 mmHg 69%
    05:00 +11°C° 0 mm 4 m/S 747 mmHg 65%
    06:00 +12°C° 0 mm 4 m/S 747 mmHg 61%
    07:00 +14°C° 0 mm 5 m/S 748 mmHg 57%
    08:00 +15°C° 0 mm 5 m/S 748 mmHg 52%
    09:00 +16°C° 0 mm 5 m/S 748 mmHg 50%
    10:00 +17°C° 0 mm 5 m/S 749 mmHg 48%
    11:00 +19°C° 0 mm 5 m/S 749 mmHg 46%
    12:00 +19°C° 0 mm 5 m/S 749 mmHg 46%
    13:00 +19°C° 0 mm 5 m/S 749 mmHg 46%
    14:00 +19°C° 0 mm 5 m/S 749 mmHg 46%
    15:00 +19°C° 0 mm 5 m/S 749 mmHg 47%
    16:00 +17°C° 0 mm 5 m/S 749 mmHg 48%
    17:00 +18°C° 0 mm 4 m/S 749 mmHg 50%
    18:00 +15°C° 0 mm 4 m/S 750 mmHg 51%
    19:00 +14°C° 0 mm 4 m/S 750 mmHg 51%
    20:00 +12°C° 0 mm 4 m/S 750 mmHg 52%
    21:00 +11°C° 0 mm 4 m/S 751 mmHg 52%
    22:00 +10°C° 0 mm 4 m/S 751 mmHg 52%
    23:00 +8°C° 0 mm 4 m/S 752 mmHg 52%

    1 Juni, Freitag

    Zeit Temperatur Niederschläge Wind Luftdruck Luftfeuchtigkeit
    00:00 +7°C° 0 mm 4 m/S 752 mmHg 55%
    01:00 +6°C° 0 mm 4 m/S 752 mmHg 58%
    02:00 +6°C° 0 mm 4 m/S 752 mmHg 61%
    03:00 +5°C° 0 mm 3 m/S 753 mmHg 63%
    04:00 +5°C° 0 mm 3 m/S 753 mmHg 65%
    05:00 +5°C° 0 mm 3 m/S 753 mmHg 67%
    06:00 +7°C° 0 mm 3 m/S 754 mmHg 63%
    07:00 +9°C° 0 mm 3 m/S 754 mmHg 58%
    08:00 +11°C° 0 mm 4 m/S 754 mmHg 54%
    09:00 +12°C° 0 mm 4 m/S 755 mmHg 50%
    10:00 +13°C° 0 mm 4 m/S 755 mmHg 45%
    11:00 +14°C° 0 mm 4 m/S 755 mmHg 41%
    12:00 +15°C° 0 mm 4 m/S 755 mmHg 40%
    13:00 +15°C° 0 mm 4 m/S 755 mmHg 40%
    14:00 +17°C° 0 mm 4 m/S 754 mmHg 39%
    15:00 +17°C° 0 mm 4 m/S 754 mmHg 40%
    16:00 +17°C° 0 mm 4 m/S 754 mmHg 41%
    17:00 +15°C° 0 mm 4 m/S 754 mmHg 43%
    18:00 +14°C° 0 mm 3 m/S 755 mmHg 50%
    19:00 +12°C° 0 mm 3 m/S 755 mmHg 57%
    20:00 +12°C° 0 mm 2 m/S 755 mmHg 64%
    21:00 +9°C° 0 mm 2 m/S 755 mmHg 66%
    22:00 +8°C° 0 mm 2 m/S 756 mmHg 68%
    23:00 +7°C° 0 mm 2 m/S 756 mmHg 69%

    2 Juni, Samstag

    Zeit Temperatur Niederschläge Wind Luftdruck Luftfeuchtigkeit
    00:00 +6°C° 0 mm 2 m/S 756 mmHg 71%
    01:00 +6°C° 0 mm 2 m/S 756 mmHg 73%
    02:00 +6°C° 0 mm 1 m/S 756 mmHg 75%
    03:00 +7°C° 0 mm 1 m/S 757 mmHg 74%
    04:00 +7°C° 0 mm 1 m/S 757 mmHg 74%
    05:00 +7°C° 0 mm 1 m/S 757 mmHg 74%
    06:00 +10°C° 0 mm 1 m/S 757 mmHg 66%
    07:00 +12°C° 0 mm 1 m/S 757 mmHg 58%
    08:00 +14°C° 0 mm 1 m/S 757 mmHg 51%
    09:00 +15°C° 0 mm 1 m/S 757 mmHg 46%
    10:00 +17°C° 0 mm 2 m/S 757 mmHg 42%
    11:00 +18°C° 0 mm 2 m/S 757 mmHg 38%
    12:00 +19°C° 0 mm 2 m/S 756 mmHg 37%
    13:00 +20°C° 0 mm 1 m/S 756 mmHg 36%
    14:00 +21°C° 0 mm 1 m/S 756 mmHg 36%
    15:00 +21°C° 0 mm 1 m/S 755 mmHg 37%
    16:00 +21°C° 0 mm 1 m/S 755 mmHg 38%
    17:00 +21°C° 0 mm 1 m/S 755 mmHg 39%
    18:00 +19°C° 0 mm 1 m/S 755 mmHg 46%
    19:00 +16°C° 0 mm 1 m/S 754 mmHg 53%
    20:00 +14°C° 0 mm 1 m/S 754 mmHg 61%
    21:00 +13°C° 0 mm 1 m/S 754 mmHg 63%
    22:00 +12°C° 0 mm 1 m/S 754 mmHg 65%
    23:00 +11°C° 0 mm 1 m/S 754 mmHg 67%
    Mehr zeigen